contact:dominique.lefevre@mio.osupytheas.fr, maurice.libes@osupytheas.fr
Project:EMSO Ligure-ouest http://www.emso-fr.org/EMSO-France
Sensor Aquadopp, line 13 Serial AQD14315 
DOI : "https://doi.org/10.17882/74513; https://doi.org/10.17882/83244" 
Title:EMSO Ligure Ouest : Data ligne ALBATROSS capteur AQUADOPP - deploiement 2021
Id,Date,Profondeur,Latitude,Longitude,X_East,Y_North,Z_Up,Amplitude_X,Amplitude_Y,Amplitude_Z,Batterie,SoundSpeed,Heading,Pitch,Roll,Pressure,Temperature,Speed,Direction
, , m, degrees North, degrees East, m.s-1, m.s-1,m.s-1, 1, 1, 1, Volt, m.s-1, degree, degree, degree, dbar, degree_C, m.s-1, degree
07,2022-08-23T23:30:00,1500.0,42.79,6.0312,-0.031,0.0,0.004,46.0,47.0,47.0,13.0,1504.0,344.7,0.2,0.6,1475.07,13.11,0.03,270.0
07,2022-08-24T00:00:00,1500.0,42.79,6.0312,-0.029,-0.007,0.0,46.0,50.0,45.0,13.0,1504.0,350.1,0.1,0.7,1475.078,13.11,0.029,256.4
07,2022-08-24T00:30:00,1500.0,42.79,6.0312,-0.025,0.004,0.011,46.0,47.0,49.0,12.9,1504.0,349.0,0.0,0.9,1475.06,13.11,0.025,279.1
07,2022-08-24T01:00:00,1500.0,42.79,6.0312,-0.03,0.0,0.013,45.0,49.0,47.0,13.0,1504.0,352.1,-0.1,0.9,1475.078,13.11,0.03,270.0
07,2022-08-24T01:30:00,1500.0,42.79,6.0312,-0.021,0.004,0.008,48.0,47.0,49.0,13.0,1504.0,355.3,0.2,0.7,1475.034,13.11,0.021,280.8
07,2022-08-24T02:00:00,1500.0,42.79,6.0312,-0.013,0.0,0.005,47.0,50.0,47.0,13.0,1504.0,358.4,-0.1,0.8,1475.064,13.11,0.013,270.0
07,2022-08-24T02:30:00,1500.0,42.79,6.0312,-0.025,0.01,-0.001,51.0,49.0,46.0,13.0,1504.0,1.5,0.2,0.6,1475.081,13.11,0.026,291.8
07,2022-08-24T03:00:00,1500.0,42.79,6.0312,-0.015,0.009,0.009,47.0,48.0,47.0,13.0,1504.0,4.4,0.2,0.6,1475.089,13.11,0.017,301.0
07,2022-08-24T03:30:00,1500.0,42.79,6.0312,-0.021,0.012,0.003,45.0,48.0,52.0,13.0,1504.0,8.0,0.0,0.8,1475.087,13.11,0.024,299.7
07,2022-08-24T04:00:00,1500.0,42.79,6.0312,-0.019,0.026,0.01,48.0,46.0,47.0,12.9,1504.0,12.9,0.2,0.9,1475.107,13.11,0.032,323.8
07,2022-08-24T04:30:00,1500.0,42.79,6.0312,-0.006,0.0,0.005,55.0,47.0,47.0,13.0,1504.0,15.4,0.1,0.7,1475.124,13.11,0.006,270.0
07,2022-08-24T05:00:00,1500.0,42.79,6.0312,-0.015,0.008,-0.001,46.0,48.0,44.0,13.0,1504.0,18.2,0.1,0.8,1475.101,13.11,0.017,298.1
07,2022-08-24T05:30:00,1500.0,42.79,6.0312,-0.007,0.004,-0.001,49.0,47.0,47.0,13.0,1504.0,18.7,0.0,0.8,1475.125,13.11,0.008,299.7
07,2022-08-24T06:00:00,1500.0,42.79,6.0312,-0.01,0.001,-0.005,48.0,47.0,49.0,13.0,1504.0,20.1,0.2,0.8,1475.112,13.11,0.01,275.7
07,2022-08-24T06:30:00,1500.0,42.79,6.0312,-0.006,0.007,0.014,47.0,47.0,48.0,13.0,1504.0,22.7,-0.1,1.0,1475.096,13.11,0.009,319.4
07,2022-08-24T07:00:00,1500.0,42.79,6.0312,-0.014,0.007,-0.004,47.0,49.0,47.0,13.0,1504.0,23.2,0.1,0.7,1475.127,13.11,0.015,296.6
07,2022-08-24T07:30:00,1500.0,42.79,6.0312,-0.01,0.008,0.003,46.0,49.0,50.0,13.0,1504.0,23.0,0.1,1.0,1475.106,13.11,0.012,308.7
07,2022-08-24T08:00:00,1500.0,42.79,6.0312,-0.015,0.008,-0.004,46.0,48.0,52.0,12.9,1504.0,20.7,0.1,0.7,1475.078,13.11,0.017,298.1
07,2022-08-24T08:30:00,1500.0,42.79,6.0312,-0.023,-0.004,0.005,46.0,46.0,48.0,13.0,1504.0,17.5,0.2,0.7,1475.071,13.11,0.023,260.1
07,2022-08-24T09:00:00,1500.0,42.79,6.0312,-0.012,-0.006,-0.001,46.0,46.0,47.0,13.0,1504.0,15.1,0.2,0.7,1475.068,13.11,0.013,243.4
07,2022-08-24T09:30:00,1500.0,42.79,6.0312,-0.03,-0.001,0.014,48.0,49.0,48.0,12.9,1504.0,12.9,0.0,0.8,1475.003,13.11,0.03,268.1
07,2022-08-24T10:00:00,1500.0,42.79,6.0312,-0.018,-0.007,0.0,47.0,49.0,51.0,13.0,1504.0,7.7,-0.3,0.8,1475.002,13.11,0.019,248.8
07,2022-08-24T10:30:00,1500.0,42.79,6.0312,-0.024,-0.005,0.004,47.0,47.0,47.0,13.0,1504.0,3.1,0.1,0.7,1475.025,13.11,0.024,258.2
07,2022-08-24T11:00:00,1500.0,42.79,6.0312,-0.011,-0.012,0.007,46.0,50.0,47.0,13.0,1504.0,1.3,-0.1,0.6,1475.005,13.11,0.016,222.5
07,2022-08-24T11:30:00,1500.0,42.79,6.0312,-0.025,-0.003,0.008,45.0,48.0,44.0,13.0,1504.0,4.1,0.0,0.6,1474.979,13.11,0.025,263.2
07,2022-08-24T12:00:00,1500.0,42.79,6.0312,-0.02,-0.014,-0.002,46.0,52.0,47.0,13.0,1504.0,3.7,0.1,0.7,1474.985,13.11,0.024,235.0
07,2022-08-24T12:30:00,1500.0,42.79,6.0312,-0.017,-0.003,0.002,48.0,52.0,46.0,13.0,1504.0,1.9,0.3,0.8,1474.994,13.11,0.017,260.0
07,2022-08-24T13:00:00,1500.0,42.79,6.0312,-0.021,-0.002,0.022,47.0,47.0,45.0,13.0,1504.0,5.1,0.3,1.0,1475.021,13.11,0.021,264.6
07,2022-08-24T13:30:00,1500.0,42.79,6.0312,-0.032,0.007,0.01,46.0,47.0,45.0,13.0,1504.0,7.7,-0.1,1.1,1475.035,13.11,0.032,282.3
07,2022-08-24T14:00:00,1500.0,42.79,6.0312,-0.023,-0.003,-0.008,46.0,47.0,47.0,13.0,1504.0,6.8,-0.2,1.0,1475.036,13.11,0.023,262.6
07,2022-08-24T14:30:00,1500.0,42.79,6.0312,-0.016,0.005,0.01,44.0,46.0,46.0,12.9,1504.0,8.4,-0.1,0.9,1475.047,13.11,0.016,287.4
07,2022-08-24T15:00:00,1500.0,42.79,6.0312,-0.012,0.004,-0.003,45.0,49.0,47.0,13.0,1504.0,10.1,0.2,0.8,1475.081,13.11,0.012,288.4
07,2022-08-24T15:30:00,1500.0,42.79,6.0312,-0.01,0.005,0.013,49.0,50.0,48.0,13.0,1504.0,11.8,0.1,0.7,1475.11,13.11,0.011,296.6
07,2022-08-24T16:00:00,1500.0,42.79,6.0312,-0.01,0.006,0.007,46.0,48.0,46.0,13.0,1504.0,11.6,0.2,0.8,1475.156,13.11,0.011,301.0
07,2022-08-24T16:30:00,1500.0,42.79,6.0312,-0.013,0.009,0.016,44.0,47.0,48.0,13.0,1504.0,13.6,0.0,1.0,1475.142,13.11,0.015,304.7
07,2022-08-24T17:00:00,1500.0,42.79,6.0312,-0.006,0.001,-0.009,49.0,46.0,50.0,12.9,1504.0,13.7,-0.1,0.7,1475.157,13.11,0.006,279.5
07,2022-08-24T17:30:00,1500.0,42.79,6.0312,-0.013,0.01,0.0,46.0,47.0,49.0,13.0,1504.0,15.5,0.2,0.7,1475.171,13.11,0.016,307.6
07,2022-08-24T18:00:00,1500.0,42.79,6.0312,-0.016,-0.001,0.012,46.0,45.0,47.0,13.0,1504.0,16.0,0.2,0.7,1475.181,13.11,0.016,266.4
07,2022-08-24T18:30:00,1500.0,42.79,6.0312,-0.009,-0.004,-0.008,45.0,50.0,49.0,13.0,1504.0,16.1,0.2,0.7,1475.189,13.11,0.009,246.0
07,2022-08-24T19:00:00,1500.0,42.79,6.0312,-0.015,0.011,-0.003,52.0,46.0,47.0,13.0,1504.0,14.8,0.1,0.8,1475.214,13.11,0.018,306.3
07,2022-08-24T19:30:00,1500.0,42.79,6.0312,-0.025,0.0,-0.004,47.0,48.0,46.0,12.9,1504.0,14.1,0.1,0.9,1475.158,13.11,0.025,270.0
07,2022-08-24T20:00:00,1500.0,42.79,6.0312,-0.018,0.004,-0.006,50.0,46.0,48.0,12.9,1504.0,16.4,0.1,0.7,1475.176,13.11,0.018,282.5
07,2022-08-24T20:30:00,1500.0,42.79,6.0312,-0.013,-0.007,-0.006,47.0,48.0,49.0,13.0,1504.0,15.9,-0.1,0.6,1475.163,13.11,0.014,241.7
07,2022-08-24T21:00:00,1500.0,42.79,6.0312,-0.018,0.002,0.003,49.0,47.0,52.0,13.0,1504.0,15.5,0.2,0.7,1475.155,13.11,0.018,276.3
07,2022-08-24T21:30:00,1500.0,42.79,6.0312,-0.015,-0.001,0.003,49.0,49.0,47.0,12.9,1504.0,16.1,0.1,0.7,1475.116,13.11,0.015,266.2
07,2022-08-24T22:00:00,1500.0,42.79,6.0312,-0.015,0.0,0.014,49.0,49.0,47.0,13.0,1504.0,19.5,0.2,0.6,1475.133,13.11,0.015,270.0
07,2022-08-24T22:30:00,1500.0,42.79,6.0312,-0.025,-0.001,-0.009,47.0,48.0,49.0,12.9,1504.0,21.9,0.0,0.8,1475.093,13.11,0.025,267.7
07,2022-08-24T23:00:00,1500.0,42.79,6.0312,-0.01,0.001,0.005,46.0,46.0,45.0,13.0,1504.0,24.4,0.1,0.7,1475.125,13.11,0.01,275.7
